Wind_Speed
17 16 16 15 15 14 14 13 12 11 10 10 9 9 9 9 9 9 9 9 9 9 9 9 9 9 10 10 11 11 11 12 12 12 13 13 14 14 14 14 14 15 16
19 18 18 17 16 16 15 14 13 13 12 12 11 11 11 11 11 11 11 11 10 10 10 11 11 11 11 12 12 13 14 14 15 15 15 15 15 15 16 16 16 17 17
22 21 20 19 18 18 17 16 15 15 14 14 13 13 13 13 12 12 12 12 12 12 12 12 13 13 13 13 14 14 15 16 16 16 16 16 16 17 17 18 18 18 19
24 23 22 21 21 20 19 18 17 17 16 15 15 14 14 14 14 13 13 14 14 14 14 14 14 14 15 15 15 16 16 16 17 17 17 17 18 18 19 19 20 20 20
26 25 24 23 22 21 20 20 19 18 17 17 16 16 16 15 15 15 15 15 16 16 16 16 16 16 16 17 17 17 17 17 17 18 18 19 19 20 20 21 21 21 21
28 27 26 25 24 23 22 21 21 20 19 18 18 17 17 17 17 17 17 17 17 17 17 17 17 18 18 18 18 18 18 18 19 19 20 20 21 21 22 22 23 23 23
30 29 28 27 25 24 23 23 22 21 20 19 19 18 18 18 18 18 18 18 18 19 19 19 19 19 19 19 19 19 20 20 20 21 21 22 22 23 23 23 23 23 23
32 31 30 28 27 26 25 24 23 22 22 21 20 20 20 19 19 19 20 20 20 20 20 20 20 20 20 20 20 21 21 21 22 22 22 23 23 23 24 24 24 25 25
33 33 32 30 29 28 27 26 25 24 23 23 22 22 22 21 21 21 21 21 21 21 21 21 21 21 21 22 22 22 22 23 23 23 23 24 24 25 25 26 26 26 27
35 34 33 32 31 30 29 28 27 26 25 25 24 24 23 23 23 23 23 22 22 22 22 22 22 22 23 23 23 24 24 24 24 24 25 25 25 26 26 27 27 27 28
37 36 35 33 32 32 31 30 29 28 27 26 26 26 25 25 25 24 24 23 23 23 23 23 23 24 24 24 24 25 25 25 25 25 26 27 27 27 28 28 28 28 28
38 37 36 35 34 33 32 31 30 30 29 28 28 27 27 26 26 26 25 25 25 24 24 24 24 25 25 26 26 27 27 27 27 27 28 28 29 29 29 29 29 29 29
39 37 37 36 35 34 33 33 32 31 30 30 29 29 28 28 27 27 26 26 26 26 26 26 26 27 27 28 28 28 28 28 28 29 29 30 30 30 30 30 30 30 31
40 38 38 37 36 35 35 34 33 32 32 31 31 30 29 29 28 28 27 27 27 27 27 27 27 28 28 29 29 29 30 30 30 30 31 31 31 31 31 32 31 32 32
40 39 38 38 37 36 35 35 34 33 33 32 31 31 30 30 29 29 29 29 28 29 29 29 29 29 30 30 30 30 31 31 31 31 32 32 32 32 32 33 33 34 34
40 40 39 38 38 37 36 35 35 34 33 33 32 32 31 31 30 30 30 30 30 30 30 30 30 30 30 31 31 31 32 32 32 33 33 33 33 33 34 34 35 35 36
40 40 39 39 38 38 37 36 36 35 34 34 33 32 32 32 31 31 31 31 31 31 30 30 31 31 31 31 31 32 32 33 33 33 33 33 33 34 34 35 36 37 37
40 39 39 39 39 38 37 37 36 36 35 35 34 34 33 33 32 32 32 31 31 31 31 31 31 31 31 31 31 32 33 33 33 33 33 33 34 34 35 36 37 38 38
41 41 40 39 39 39 38 37 36 36 35 35 35 35 34 34 33 33 32 32 32 31 31 32 32 32 31 31 31 32 33 33 33 33 33 34 35 35 36 37 38 39 39
41 41 41 40 40 39 38 38 37 36 35 35 35 35 35 36 35 34 33 33 32 32 32 31 31 31 31 31 31 32 32 33 33 34 34 35 36 36 37 38 39 39 40
41 41 41 41 40 39 39 38 37 36 36 36 36 35 36 35 35 34 34 33 33 32 31 31 31 31 31 31 32 32 33 33 34 34 35 35 36 36 37 38 39 39 40
41 41 41 41 41 40 39 38 38 37 37 36 35 35 35 35 35 34 34 33 32 32 31 31 31 31 32 31 31 32 32 33 33 34 35 35 36 37 38 39 39 39 40
40 40 41 41 41 40 39 39 38 37 37 36 35 35 35 35 35 34 33 32 32 32 32 32 32 31 32 32 33 33 34 34 34 34 35 36 37 38 39 40 41 41 42
40 40 41 40 40 39 39 39 38 38 37 36 36 35 35 35 34 33 33 33 32 32 32 31 31 32 32 33 33 34 35 36 36 35 36 37 38 39 41 42 42 43 43
41 41 40 41 40 40 39 39 39 38 37 36 36 36 35 35 34 33 33 33 32 32 32 32 32 33 33 34 34 35 35 36 37 38 37 38 39 41 42 43 43 44 45
42 42 40 41 41 40 40 39 39 39 38 37 36 36 36 35 35 34 34 33 33 33 33 33 33 33 34 35 35 36 36 37 38 39 39 40 41 41 42 43 44 45 46
Wind_Direction
233 234 235 236 237 238 239 240 242 242 244 248 251 254 259 264 268 272 272 275 280 282 282 285 287 287 288 288 288 290 294 298 301 303 304 305 306 306 305 304 305 305 304
235 235 236 238 238 238 239 240 243 245 248 250 253 256 260 264 268 272 274 276 278 280 281 283 285 287 287 287 289 291 294 295 297 299 301 302 302 302 301 300 301 302 302
236 237 238 238 239 239 240 242 244 246 249 251 254 256 259 263 266 271 274 277 279 280 281 283 285 286 287 288 289 291 293 295 296 297 298 299 299 299 299 299 298 298 299
238 237 237 238 239 240 242 244 245 247 249 252 254 257 260 263 266 269 273 276 278 280 282 282 283 284 286 288 288 290 293 295 296 298 298 298 297 297 297 297 296 295 295
238 237 237 239 240 241 243 245 246 247 249 252 255 257 259 262 266 269 271 274 277 280 282 283 282 284 286 288 289 290 291 293 294 295 296 297 297 297 296 295 295 295 294
238 238 238 239 240 241 243 245 246 247 249 252 255 257 259 262 265 268 271 274 276 279 281 282 283 284 285 287 288 289 290 291 293 294 295 295 296 297 297 296 295 294 294
238 238 239 239 240 241 242 243 245 248 250 253 255 257 260 263 266 269 271 274 276 277 279 280 282 283 284 285 286 288 289 291 293 294 294 294 296 296 296 297 296 295 295
238 238 239 240 240 241 242 243 245 248 250 253 256 259 261 265 268 270 273 274 275 276 277 278 280 281 283 284 285 287 289 290 291 293 293 294 295 296 297 296 296 295 295
238 238 239 239 239 241 242 243 245 248 251 254 257 259 262 265 268 271 274 276 275 275 276 277 278 279 281 282 284 286 288 290 290 292 293 294 295 296 297 296 295 294 294
238 239 238 238 239 240 242 243 245 248 251 254 258 260 263 265 268 270 273 275 276 275 275 276 277 279 281 282 285 287 288 290 291 291 293 294 295 296 296 296 296 295 294
238 238 238 238 239 240 242 244 246 249 251 254 258 260 263 266 268 270 272 274 275 275 275 276 277 279 281 283 285 287 287 289 290 291 292 293 294 295 295 294 294 294 293
238 238 238 238 239 240 242 244 246 249 252 254 257 260 263 266 268 269 271 272 273 274 274 275 277 279 282 283 285 286 287 288 288 289 290 292 293 294 294 293 293 293 292
236 237 238 239 239 241 242 244 246 249 252 255 257 260 262 265 267 268 268 270 272 273 274 276 278 280 281 283 284 285 286 287 288 288 289 290 291 292 293 293 292 292 292
236 236 238 239 240 241 242 244 247 249 252 255 257 259 262 264 265 267 268 269 271 273 275 277 278 280 282 283 283 284 285 286 287 288 289 289 290 291 292 291 291 292 291
235 236 238 240 240 241 242 245 247 249 252 254 257 259 261 263 265 266 268 269 270 272 274 277 279 281 282 283 283 283 284 286 287 288 289 290 290 290 291 291 291 291 291
235 236 237 239 241 241 243 244 247 249 252 254 257 259 261 263 264 265 267 269 270 272 274 276 278 281 282 283 283 284 285 286 287 288 289 290 290 290 290 290 291 291 291
235 236 237 239 241 242 243 244 247 249 251 254 256 258 260 262 263 266 268 269 271 272 274 276 278 280 281 282 283 284 285 287 288 289 290 290 290 290 290 291 291 292 292
235 235 237 238 239 241 242 244 247 249 251 253 255 257 259 261 262 265 267 270 272 273 275 277 278 279 281 282 283 285 286 287 289 289 290 290 290 290 291 291 292 292 292
235 235 237 239 240 241 242 244 247 249 251 253 255 257 258 261 263 265 268 270 272 273 275 276 277 279 281 283 285 286 287 288 289 290 291 291 291 292 292 293 293 293 293
235 235 237 239 241 242 243 245 247 249 251 253 255 257 259 261 265 267 268 270 272 274 274 276 277 278 280 283 285 287 288 289 290 291 292 293 293 294 294 295 295 295 294
235 236 237 239 242 243 244 246 247 249 251 253 255 257 260 262 264 267 268 269 271 273 275 276 277 278 280 282 284 286 288 289 291 292 293 294 295 296 297 297 297 296 296
237 237 238 240 242 243 244 246 248 249 250 252 254 256 258 260 263 265 267 268 270 272 275 276 277 278 280 282 284 285 287 289 291 293 294 295 296 297 298 298 298 297 297
237 237 239 240 241 243 245 246 248 249 250 253 253 255 257 260 262 263 265 267 270 273 275 277 278 280 281 283 285 286 288 289 291 292 294 295 296 296 296 297 297 297 297
237 238 239 239 241 243 245 246 247 248 250 252 253 255 257 259 261 263 266 268 270 272 274 276 277 279 281 284 286 287 288 290 291 292 293 295 296 296 296 296 296 296 297
236 237 239 240 241 243 245 246 248 248 250 252 253 254 256 258 261 263 266 268 270 272 273 275 277 279 282 284 286 288 289 291 292 293 294 295 296 297 297 297 297 297 297
237 237 239 240 241 243 245 246 248 248 249 252 253 254 256 258 260 263 266 268 270 272 274 275 277 279 281 284 286 287 289 291 293 294 295 296 296 297 297 298 298 298 298
Height
5853 5854 5856 5857 5858 5860 5861 5862 5863 5864 5865 5866 5866 5867 5867 5868 5868 5869 5869 5870 5870 5870 5871 5871 5871 5871 5871 5871 5871 5870 5870 5870 5870 5869 5868 5868 5867 5867 5866 5866 5865 5864 5864
5850 5852 5853 5855 5856 5857 5859 5860 5861 5863 5863 5864 5865 5865 5866 5866 5867 5867 5868 5868 5868 5869 5869 5869 5869 5869 5869 5869 5869 5869 5868 5868 5868 5867 5866 5866 5866 5865 5864 5864 5863 5862 5861
5846 5848 5850 5852 5853 5855 5856 5858 5859 5860 5861 5862 5863 5863 5864 5865 5865 5865 5866 5866 5867 5867 5867 5867 5868 5868 5867 5867 5867 5867 5866 5866 5865 5865 5864 5864 5863 5863 5862 5861 5860 5859 5859
5842 5845 5847 5848 5850 5852 5853 5855 5856 5857 5859 5859 5860 5861 5862 5863 5863 5864 5864 5864 5865 5865 5865 5865 5865 5865 5865 5865 5865 5864 5864 5863 5863 5862 5862 5861 5861 5860 5859 5858 5857 5856 5855
5838 5840 5843 5845 5847 5848 5850 5852 5853 5854 5856 5857 5858 5859 5859 5860 5861 5861 5862 5862 5862 5863 5863 5863 5863 5863 5863 5862 5862 5862 5861 5861 5860 5860 5859 5859 5858 5857 5856 5855 5854 5853 5852
5834 5836 5839 5841 5843 5845 5847 5848 5850 5851 5853 5854 5855 5856 5857 5858 5858 5859 5859 5859 5860 5860 5860 5860 5860 5860 5860 5859 5859 5859 5858 5858 5857 5857 5856 5855 5854 5854 5853 5851 5850 5849 5848
5829 5831 5834 5837 5839 5841 5843 5845 5846 5848 5849 5850 5851 5853 5854 5854 5855 5855 5856 5856 5856 5857 5857 5857 5857 5857 5856 5856 5856 5855 5855 5855 5854 5853 5853 5852 5851 5850 5849 5848 5846 5845 5844
5823 5826 5829 5832 5834 5836 5839 5841 5842 5844 5845 5847 5848 5849 5850 5851 5852 5852 5852 5853 5853 5853 5853 5853 5853 5853 5853 5853 5852 5852 5852 5851 5851 5850 5849 5848 5847 5846 5845 5844 5842 5841 5840
5817 5820 5824 5827 5829 5832 5834 5836 5838 5840 5841 5843 5844 5845 5846 5847 5848 5848 5849 5849 5849 5849 5850 5850 5850 5850 5849 5849 5849 5848 5848 5847 5847 5846 5845 5844 5843 5842 5840 5839 5838 5836 5835
5811 5814 5818 5821 5824 5826 5829 5831 5833 5835 5837 5839 5840 5841 5842 5843 5844 5844 5845 5845 5845 5845 5846 5846 5846 5846 5846 5845 5845 5844 5844 5843 5843 5842 5841 5840 5839 5837 5836 5834 5833 5832 5830
5804 5808 5811 5815 5818 5821 5824 5826 5828 5831 5832 5834 5835 5836 5838 5839 5839 5840 5840 5841 5841 5841 5841 5841 5842 5842 5841 5841 5840 5840 5839 5839 5838 5837 5836 5835 5834 5833 5831 5830 5828 5827 5825
5797 5801 5805 5809 5812 5815 5818 5821 5823 5825 5827 5829 5830 5831 5833 5834 5834 5835 5836 5836 5836 5836 5837 5837 5837 5837 5837 5836 5836 5835 5834 5834 5833 5832 5831 5830 5829 5827 5826 5824 5823 5821 5819
5790 5794 5798 5802 5805 5809 5812 5815 5817 5820 5822 5823 5825 5826 5828 5828 5829 5830 5830 5831 5831 5832 5832 5832 5832 5832 5832 5831 5830 5830 5829 5829 5828 5827 5826 5824 5823 5822 5820 5819 5817 5815 5814
5783 5787 5791 5795 5799 5802 5806 5809 5811 5814 5816 5817 5819 5821 5822 5823 5824 5824 5825 5826 5826 5827 5827 5827 5827 5826 5826 5825 5825 5824 5823 5823 5822 5821 5820 5818 5817 5816 5814 5812 5811 5809 5807
5776 5780 5784 5788 5792 5796 5799 5802 5805 5807 5810 5811 5813 5815 5816 5817 5818 5819 5820 5820 5821 5821 5821 5821 5821 5821 5820 5819 5819 5818 5818 5817 5816 5814 5813 5812 5811 5809 5807 5806 5804 5802 5800
5768 5773 5777 5781 5785 5789 5792 5795 5798 5801 5803 5805 5807 5808 5810 5811 5812 5813 5814 5814 5815 5815 5815 5815 5815 5814 5814 5813 5813 5812 5811 5810 5809 5808 5807 5805 5804 5802 5800 5798 5797 5795 5792
5761 5766 5770 5774 5777 5781 5785 5788 5791 5794 5796 5799 5800 5802 5803 5804 5805 5807 5807 5808 5808 5808 5809 5809 5809 5808 5808 5807 5806 5805 5804 5803 5802 5801 5800 5798 5797 5795 5793 5791 5789 5787 5784
5753 5758 5762 5766 5770 5774 5777 5781 5784 5787 5789 5791 5793 5795 5796 5798 5799 5800 5801 5801 5802 5802 5802 5802 5802 5802 5801 5800 5800 5799 5798 5797 5796 5794 5793 5791 5789 5788 5785 5783 5781 5778 5776
5746 5750 5755 5758 5762 5766 5770 5773 5776 5779 5782 5784 5786 5787 5789 5791 5792 5793 5794 5795 5795 5795 5796 5795 5795 5795 5794 5794 5793 5792 5791 5790 5788 5787 5785 5783 5782 5780 5777 5775 5772 5770 5767
5738 5743 5747 5751 5755 5759 5762 5766 5769 5772 5775 5777 5779 5780 5782 5784 5785 5786 5787 5788 5788 5789 5789 5788 5788 5788 5787 5787 5786 5785 5784 5782 5781 5780 5778 5776 5774 5771 5769 5766 5764 5761 5758
5731 5735 5739 5743 5747 5751 5755 5758 5761 5764 5767 5770 5772 5773 5775 5777 5778 5779 5780 5781 5781 5782 5782 5782 5781 5781 5780 5780 5779 5778 5777 5775 5774 5772 5770 5768 5766 5763 5760 5758 5755 5752 5749
5723 5728 5732 5736 5740 5744 5747 5750 5754 5756 5759 5762 5764 5766 5768 5769 5771 5772 5773 5774 5774 5775 5775 5775 5774 5774 5773 5772 5772 5771 5770 5769 5767 5764 5762 5760 5758 5755 5752 5749 5746 5743 5740
5716 5720 5724 5728 5732 5736 5739 5743 5746 5749 5751 5754 5757 5759 5760 5762 5764 5765 5766 5767 5767 5768 5768 5767 5767 5767 5766 5765 5764 5763 5762 5761 5760 5758 5755 5752 5749 5747 5744 5741 5738 5734 5731
5708 5712 5716 5720 5724 5728 5731 5735 5738 5741 5744 5747 5749 5751 5753 5755 5757 5758 5759 5760 5760 5760 5760 5760 5760 5759 5759 5758 5757 5755 5754 5752 5751 5750 5748 5744 5741 5738 5735 5732 5728 5725 5721
5700 5704 5708 5712 5716 5720 5724 5727 5730 5733 5736 5739 5741 5744 5746 5748 5749 5751 5752 5752 5752 5753 5753 5752 5752 5752 5751 5750 5749 5747 5746 5744 5742 5740 5739 5737 5733 5729 5725 5722 5718 5715 5710
5692 5696 5700 5704 5708 5712 5716 5719 5722 5725 5728 5731 5733 5736 5738 5740 5742 5743 5744 5745 5745 5745 5745 5745 5745 5744 5743 5742 5741 5739 5738 5736 5733 5731 5729 5727 5724 5721 5717 5712 5708 5704 5699